FW2530 Weather Reports


Display with metric or nautical units.
time (UTC)temp
F
wind
direction
speed
MPH
gust
MPH
rain 1hr
in
rain 24hr
in
rain mn
in
humidity
%
barometer
mb
20260508144004 56 330 3.0 12.0 0.00 0.00 0.00 53 1011.1
20260508143504 55 324 3.0 11.0 0.00 0.00 0.00 55 1011.1
20260508143004 55 333 3.0 7.0 0.00 0.00 0.00 56 1011.1
20260508142504 55 323 3.0 8.0 0.00 0.00 0.00 33 1011.2
20260508142004 55 331 2.0 8.0 0.00 0.00 0.00 59 1011.2
20260508141525 54 329 2.0 4.0 0.00 0.00 0.00 59 1011.2
20260508141004 54 341 3.0 12.0 0.00 0.00 0.00 57 1011.2
20260508140504 54 12 2.0 7.0 0.00 0.00 0.00 59 1011.1
20260508140004 54 348 3.0 7.0 0.00 0.00 0.00 58 1011.2
20260508135504 54 313 3.0 12.0 0.00 0.00 0.00 38 1011.1
20260508135004 54 309 2.0 11.0 0.00 0.00 0.00 62 1011.0
20260508134504 53 312 2.0 9.0 0.00 0.00 0.00 63 1011.1
20260508134004 53 299 2.0 7.0 0.00 0.00 0.00 63 1011.1
20260508133504 53 299 3.0 9.0 0.00 0.00 0.00 63 1011.1
20260508133004 53 323 3.0 12.0 0.00 0.00 0.00 63 1011.1
20260508132525 53 355 2.0 7.0 0.00 0.00 0.00 64 1011.1
20260508132004 52 356 2.0 4.0 0.00 0.00 0.00 66 1011.0
20260508131504 52 351 2.0 5.0 0.00 0.00 0.00 66 1011.0
20260508131025 51 353 2.0 4.0 0.00 0.00 0.00 68 1011.0
20260508130504 51 8 2.0 7.0 0.00 0.00 0.00 69 1010.9
20260508130005 50 21 2.0 7.0 0.00 0.00 0.00 70 1010.8
20260508125504 50 24 2.0 5.0 0.00 0.00 0.00 71 1010.9
20260508125004 49 30 3.0 5.0 0.00 0.00 0.00 72 1010.8
20260508124504 49 32 2.0 7.0 0.00 0.00 0.00 74 1010.8
20260508124004 49 32 2.0 4.0 0.00 0.00 0.00 75 1010.7
20260508123504 48 32 2.0 5.0 0.00 0.00 0.00 75 1010.7
20260508123004 48 33 1.0 4.0 0.00 0.00 0.00 77 1010.7
20260508122504 47 33 1.0 4.0 0.00 0.00 0.00 78 1010.7
20260508122025 46 33 1.0 5.0 0.00 0.00 0.00 78 1010.8
20260508121525 46 32 1.0 5.0 0.00 0.00 0.00 79 1010.8
20260508121004 45 31 0.0 3.0 0.00 0.00 0.00 81 1010.8
20260508120504 44 32 0.0 1.0 0.00 0.00 0.00 81 1010.7
20260508120004 44 0 0.0 0.0 0.00 0.00 0.00 82 1010.7
20260508115504 43 0 0.0 0.0 0.00 0.00 0.00 82 1010.6
20260508115004 42 0 0.0 0.0 0.00 0.00 0.00 82 1010.5
20260508114504 42 0 0.0 0.0 0.00 0.00 0.00 82 1010.6
20260508114005 41 34 0.0 0.0 0.00 0.00 0.00 83 1010.6
20260508113504 41 34 0.0 1.0 0.00 0.00 0.00 83 1010.4
20260508113005 40 0 0.0 0.0 0.00 0.00 0.00 83 1010.4
20260508112504 39 32 0.0 0.0 0.00 0.00 0.00 84 1010.4
20260508112004 39 32 0.0 1.0 0.00 0.00 0.00 84 1010.4
20260508111504 38 0 0.0 0.0 0.00 0.00 0.00 85 1010.5
20260508111025 38 0 0.0 0.0 0.00 0.00 0.00 85 1010.4
20260508110504 38 0 0.0 0.0 0.00 0.00 0.00 85 1010.3
20260508110004 37 0 0.0 0.0 0.00 0.00 0.00 85 1010.3
20260508105504 37 0 0.0 0.0 0.00 0.00 0.00 85 1010.5
20260508105004 37 0 0.0 0.0 0.00 0.00 0.00 85 1010.4
20260508104504 37 0 0.0 0.0 0.00 0.00 0.00 85 1010.4
20260508104004 37 0 0.0 0.0 0.00 0.00 0.00 84 1010.4
20260508103525 38 0 0.0 0.0 0.00 0.00 0.00 84 1010.4
20260508103025 38 0 0.0 0.0 0.00 0.00 0.00 84 1010.4
20260508102504 38 0 0.0 0.0 0.00 0.00 0.00 85 1010.4
20260508102005 38 0 0.0 0.0 0.00 0.00 0.00 85 1010.4
20260508101525 38 0 0.0 0.0 0.00 0.00 0.00 84 1010.4
20260508101025 39 0 0.0 0.0 0.00 0.00 0.00 84 1010.4
20260508100525 39 0 0.0 0.0 0.00 0.00 0.00 84 1010.4
20260508100004 39 0 0.0 0.0 0.00 0.00 0.00 84 1010.4
20260508095525 39 0 0.0 0.0 0.00 0.00 0.00 85 1010.4
20260508095004 39 0 0.0 0.0 0.00 0.00 0.00 85 1010.4
20260508094504 39 31 0.0 0.0 0.00 0.00 0.00 85 1010.3
20260508094004 39 31 0.0 3.0 0.00 0.00 0.00 85 1010.3
20260508093504 39 31 0.0 3.0 0.00 0.00 0.00 85 1010.4
20260508093004 39 0 0.0 0.0 0.00 0.00 0.00 85 1010.4
20260508092504 40 0 0.0 0.0 0.00 0.00 0.00 85 1010.5
20260508092004 40 0 0.0 0.0 0.00 0.00 0.00 84 1010.4
20260508091504 40 0 0.0 0.0 0.00 0.00 0.00 84 1010.3
20260508091025 40 0 0.0 0.0 0.00 0.00 0.00 84 1010.3
20260508090525 40 0 0.0 0.0 0.00 0.00 0.00 84 1010.3
20260508090025 40 0 0.0 0.0 0.00 0.00 0.00 85 1010.4
20260508085504 40 0 0.0 0.0 0.00 0.00 0.00 84 1010.4
20260508085004 40 0 0.0 0.0 0.00 0.00 0.00 84 1010.4
20260508084504 40 0 0.0 0.0 0.00 0.00 0.00 84 1010.4
20260508084004 40 0 0.0 0.0 0.00 0.00 0.00 84 1010.3
20260508083504 40 0 0.0 0.0 0.00 0.00 0.00 84 1010.4
20260508083004 40 0 0.0 0.0 0.00 0.00 0.00 84 1010.4
20260508082504 40 0 0.0 0.0 0.00 0.00 0.00 84 1010.3
20260508082004 40 0 0.0 0.0 0.00 0.00 0.00 84 1010.4
20260508081504 40 0 0.0 0.0 0.00 0.00 0.00 84 1010.3
20260508081025 40 0 0.0 0.0 0.00 0.00 0.00 84 1010.3
20260508080504 40 0 0.0 0.0 0.00 0.00 0.00 84 1010.3
20260508080004 40 0 0.0 0.0 0.00 0.00 0.00 83 1010.4
20260508075504 40 0 0.0 0.0 0.00 0.00 0.00 83 1010.4
20260508075004 40 0 0.0 0.0 0.00 0.00 0.00 83 1010.4
20260508074504 40 0 0.0 0.0 0.00 0.00 0.00 83 1010.4
20260508074025 40 0 0.0 0.0 0.00 0.00 0.00 83 1010.4
20260508073504 40 0 0.0 0.0 0.00 0.00 0.00 83 1010.4
20260508073005 40 0 0.0 0.0 0.00 0.00 0.00 83 1010.5
20260508072504 40 0 0.0 0.0 0.00 0.00 0.00 83 1010.6
20260508072004 40 0 0.0 0.0 0.00 0.00 0.00 83 1010.5
20260508071503 40 0 0.0 0.0 0.00 0.00 0.00 83 1010.4
20260508071004 40 0 0.0 0.0 0.00 0.00 0.00 83 1010.5
20260508070504 40 0 0.0 0.0 0.00 0.00 0.00 83 1010.6
20260508070026 40 0 0.0 0.0 0.00 0.00 0.00 83 1010.6
20260508065503 40 0 0.0 0.0 0.00 0.00 0.00 83 1010.7
20260508065004 40 31 0.0 0.0 0.00 0.00 0.00 83 1010.8
20260508064504 40 31 0.0 3.0 0.00 0.00 0.00 83 1010.9
20260508064004 40 31 0.0 1.0 0.00 0.00 0.00 83 1010.9
20260508063504 40 31 0.0 0.0 0.00 0.00 0.00 83 1010.7
20260508063004 40 31 0.0 1.0 0.00 0.00 0.00 83 1010.7
20260508062504 40 31 0.0 1.0 0.00 0.00 0.00 83 1010.7
20260508062004 40 0 0.0 0.0 0.00 0.00 0.00 83 1010.7
20260508061503 40 0 0.0 0.0 0.00 0.00 0.00 83 1010.9
20260508061004 41 0 0.0 0.0 0.00 0.00 0.00 83 1010.9
20260508060504 41 0 0.0 0.0 0.00 0.00 0.00 83 1010.8
20260508060004 41 0 0.0 0.0 0.00 0.00 0.00 83 1010.8
20260508055525 41 0 0.0 0.0 0.00 0.00 0.00 83 1010.9
20260508055004 41 0 0.0 0.0 0.00 0.00 0.00 83 1010.9
20260508054504 41 0 0.0 0.0 0.00 0.00 0.00 83 1011.0
20260508054003 41 0 0.0 0.0 0.00 0.00 0.00 83 1011.0
20260508053503 41 0 0.0 0.0 0.00 0.00 0.00 82 1011.1
20260508053003 41 0 0.0 0.0 0.00 0.00 0.00 83 1011.2
20260508052504 41 0 0.0 0.0 0.00 0.00 0.00 83 1011.3
20260508052004 41 31 0.0 0.0 0.00 0.00 0.00 83 1011.3
20260508051504 41 31 0.0 3.0 0.00 0.00 0.00 83 1011.3
20260508051004 41 31 0.0 3.0 0.00 0.00 0.00 82 1011.4
20260508050525 41 31 0.0 3.0 0.00 0.00 0.00 82 1011.4
20260508050004 41 31 0.0 3.0 0.00 0.00 0.00 81 1011.4
20260508045504 41 31 0.0 1.0 0.00 0.00 0.00 81 1011.4
20260508045003 40 0 0.0 0.0 0.00 0.00 0.00 81 1011.5
20260508044504 40 0 0.0 0.0 0.00 0.00 0.00 81 1011.5
20260508044004 40 0 0.0 0.0 0.00 0.00 0.00 81 1011.5
20260508043504 40 0 0.0 0.0 0.00 0.00 0.00 81 1011.4
20260508043025 40 0 0.0 0.0 0.00 0.00 0.00 81 1011.3
20260508042504 40 31 0.0 0.0 0.00 0.00 0.00 81 1011.2
20260508042004 40 31 0.0 3.0 0.00 0.00 0.00 81 1011.2
20260508041524 40 0 0.0 0.0 0.00 0.00 0.00 81 1011.2
20260508041004 40 0 0.0 0.0 0.00 0.00 0.00 81 1011.1
20260508040504 40 0 0.0 0.0 0.00 0.00 0.00 81 1011.0
20260508040026 40 31 0.0 0.0 0.00 0.00 0.00 81 1011.1
20260508035524 40 31 1.0 3.0 0.00 0.00 0.00 81 1011.1
20260508035004 40 31 1.0 4.0 0.00 0.00 0.00 81 1011.0
20260508034504 40 31 1.0 4.0 0.00 0.00 0.00 81 1011.1
20260508034004 40 31 1.0 4.0 0.00 0.00 0.00 81 1011.2
20260508033503 40 31 1.0 0.0 0.00 0.00 0.00 81 1011.2
20260508033024 40 31 1.0 5.0 0.00 0.00 0.00 81 1011.1
20260508032525 39 31 0.0 1.0 0.00 0.00 0.00 81 1011.1
20260508032003 39 0 0.0 1.0 0.00 0.00 0.00 81 1011.3
20260508031504 39 0 0.0 0.0 0.00 0.00 0.00 80 1011.2
20260508031004 39 0 0.0 0.0 0.00 0.00 0.00 80 1011.2
20260508030503 39 0 0.0 0.0 0.00 0.00 0.00 79 1011.0
20260508030004 40 0 0.0 0.0 0.00 0.00 0.00 79 1011.0
20260508025503 40 0 0.0 0.0 0.00 0.00 0.00 78 1011.1
20260508025004 40 0 0.0 0.0 0.00 0.00 0.00 78 1011.1
20260508024504 40 0 0.0 0.0 0.00 0.00 0.00 77 1011.1
20260508024003 40 0 0.0 0.0 0.00 0.00 0.00 75 1011.1
20260508023503 40 0 0.0 0.0 0.00 0.00 0.00 74 1011.1
20260508023004 40 0 0.0 0.0 0.00 0.00 0.00 74 1011.1
20260508022503 41 0 0.0 0.0 0.00 0.00 0.00 73 1011.1
20260508022004 41 0 0.0 0.0 0.00 0.00 0.00 72 1011.0
20260508021525 41 0 0.0 0.0 0.00 0.00 0.00 72 1010.9
20260508021025 42 0 0.0 0.0 0.00 0.00 0.00 72 1011.0
20260508020524 42 0 0.0 0.0 0.00 0.00 0.00 72 1011.0
20260508020004 42 0 0.0 0.0 0.00 0.00 0.00 72 1011.0
20260508015504 42 0 0.0 0.0 0.00 0.00 0.00 72 1010.9
20260508015025 43 31 0.0 0.0 0.00 0.00 0.00 71 1010.8
20260508014504 43 31 0.0 1.0 0.00 0.00 0.00 71 1010.9
20260508014024 43 0 0.0 0.0 0.00 0.00 0.00 71 1010.9
20260508013504 44 0 0.0 0.0 0.00 0.00 0.00 71 1010.7
20260508013005 44 0 0.0 0.0 0.00 0.00 0.00 71 1010.7
20260508012504 45 0 0.0 0.0 0.00 0.00 0.00 71 1010.8
20260508012004 45 0 0.0 0.0 0.00 0.00 0.00 70 1010.9
20260508011503 45 0 0.0 0.0 0.00 0.00 0.00 70 1010.8
20260508011003 46 0 0.0 0.0 0.00 0.00 0.00 70 1010.6
20260508010525 46 0 0.0 0.0 0.00 0.00 0.00 70 1010.6
20260508010004 46 0 0.0 0.0 0.00 0.00 0.00 70 1010.4
20260508005503 46 33 1.0 0.0 0.00 0.00 0.00 70 1010.4
20260508005003 46 33 1.0 5.0 0.00 0.00 0.00 70 1010.6
20260508004525 47 33 2.0 4.0 0.00 0.00 0.00 70 1010.7
20260508004004 47 33 2.0 5.0 0.00 0.00 0.00 69 1010.7
20260508003503 47 33 2.0 5.0 0.00 0.00 0.00 69 1010.7
20260508003004 48 32 0.0 4.0 0.00 0.00 0.00 68 1010.7
20260508002503 48 32 0.0 3.0 0.00 0.00 0.00 68 1010.5
20260508002024 48 32 1.0 4.0 0.00 0.00 0.00 67 1010.2
20260508001504 48 33 1.0 3.0 0.00 0.00 0.00 67 1010.1
20260508001003 48 33 2.0 5.0 0.00 0.00 0.00 67 1010.2
20260508000504 49 34 2.0 5.0 0.00 0.00 0.00 67 1010.1
20260508000003 49 35 2.0 4.0 0.00 0.00 0.00 66 1010.1
20260507235504 49 29 3.0 7.0 0.00 0.00 0.00 66 1010.1
20260507235003 49 24 3.0 5.0 0.00 0.00 0.00 66 1010.0
20260507234503 50 15 2.0 5.0 0.00 0.00 0.00 64 1010.0
20260507234004 50 6 2.0 7.0 0.00 0.00 0.00 64 1010.1
20260507233503 50 8 2.0 4.0 0.00 0.00 0.00 64 1010.1
20260507233003 50 7 2.0 7.0 0.00 0.00 0.00 64 1010.1
20260507232503 50 6 3.0 8.0 0.00 0.00 0.00 63 1010.0
20260507232024 51 10 3.0 7.0 0.00 0.00 0.00 63 1010.1
20260507231503 51 14 3.0 5.0 0.00 0.00 0.00 63 1010.0
20260507231025 51 8 3.0 7.0 0.00 0.00 0.00 62 1010.0
20260507230503 52 14 4.0 8.0 0.00 0.00 0.00 62 1010.1
20260507230004 52 21 4.0 11.0 0.00 0.00 0.00 61 1010.0
20260507225503 52 8 3.0 7.0 0.00 0.00 0.00 61 1010.0
20260507225003 53 2 4.0 8.0 0.00 0.00 0.00 61 1010.0
20260507224525 53 358 5.0 12.0 0.00 0.00 0.00 61 1010.1
20260507224003 53 360 4.0 11.0 0.00 0.00 0.00 61 1010.0
20260507223503 53 350 4.0 11.0 0.00 0.00 0.00 61 1010.1
20260507223003 53 336 3.0 8.0 0.00 0.00 0.00 62 1010.0
20260507222503 53 357 3.0 12.0 0.00 0.00 0.00 62 1010.1
20260507222003 53 7 4.0 11.0 0.00 0.00 0.00 62 1010.2
20260507221503 53 352 5.0 13.0 0.00 0.00 0.00 62 1010.0
20260507221003 52 341 4.0 16.0 0.00 0.00 0.00 64 1010.1
20260507220503 52 359 5.0 11.0 0.00 0.00 0.00 63 1010.2
20260507220003 52 1 4.0 16.0 0.00 0.00 0.00 64 1010.1
20260507215503 51 359 4.0 12.0 0.00 0.00 0.00 66 1010.1
20260507215003 51 9 4.0 11.0 0.00 0.00 0.00 67 1010.1
20260507214503 50 356 4.0 9.0 0.00 0.00 0.00 68 1010.1
20260507214003 50 344 4.0 15.0 0.00 0.00 0.00 68 1010.1
20260507213503 50 329 4.0 8.0 0.00 0.00 0.00 69 1010.1
20260507213003 49 327 5.0 12.0 0.00 0.00 0.00 69 1010.1
20260507212503 49 337 5.0 15.0 0.00 0.00 0.00 68 1010.2
20260507212003 49 338 5.0 11.0 0.00 0.00 0.00 68 1010.2
20260507211524 50 349 4.0 9.0 0.00 0.00 0.00 68 1010.2
20260507211003 50 357 5.0 13.0 0.00 0.00 0.00 67 1010.1
20260507210524 50 3 5.0 13.0 0.00 0.00 0.00 67 1010.0
20260507210004 50 8 5.0 11.0 0.00 0.00 0.00 66 1009.9
20260507205524 50 14 4.0 11.0 0.00 0.00 0.00 67 1009.9
20260507205004 51 12 5.0 12.0 0.00 0.00 0.00 66 1009.8
20260507204504 51 2 5.0 13.0 0.00 0.00 0.00 66 1009.8
20260507204004 51 3 4.0 12.0 0.00 0.00 0.00 67 1009.8
20260507203503 51 357 5.0 9.0 0.00 0.00 0.00 67 1009.8
20260507203003 50 353 5.0 11.0 0.00 0.00 0.00 67 1009.8
20260507202524 50 360 4.0 13.0 0.00 0.00 0.00 67 1009.8
20260507202003 51 8 5.0 8.0 0.00 0.00 0.00 67 1009.8
20260507201524 51 7 6.0 15.0 0.00 0.00 0.00 67 1009.8
20260507201003 51 5 6.0 13.0 0.00 0.00 0.00 67 1009.8
20260507200524 51 2 6.0 15.0 0.00 0.00 0.00 66 1009.8
20260507195503 51 1 4.0 12.0 0.00 0.00 0.00 66 1009.8
20260507195003 51 5 2.0 12.0 0.00 0.00 0.00 67 1009.7
20260507194503 51 17 2.0 3.0 0.00 0.00 0.00 68 1009.8
20260507194024 51 19 3.0 5.0 0.00 0.00 0.00 67 1009.9
20260507193503 51 7 5.0 11.0 0.00 0.00 0.00 67 1009.9
20260507193024 52 347 6.0 16.0 0.00 0.00 0.00 64 1010.0
20260507192503 52 324 4.0 13.0 0.00 0.00 0.00 62 1009.9
20260507192003 52 343 4.0 12.0 0.00 0.00 0.00 60 1009.9
20260507191503 52 360 4.0 7.0 0.00 0.00 0.00 60 1009.9
20260507191024 52 360 4.0 11.0 0.00 0.00 0.00 59 1010.0
20260507190503 53 360 4.0 13.0 0.00 0.00 0.00 59 1009.9
20260507190004 53 360 4.0 11.0 0.00 0.00 0.00 59 1009.9
20260507185503 53 360 3.0 11.0 0.00 0.00 0.00 59 1009.9
20260507185003 53 360 3.0 11.0 0.00 0.00 0.00 60 1009.9
20260507184504 53 339 3.0 7.0 0.00 0.00 0.00 59 1009.9
20260507184003 53 309 4.0 15.0 0.00 0.00 0.00 59 1009.9
20260507183524 53 306 4.0 11.0 0.00 0.00 0.00 59 1009.9
20260507183003 53 325 4.0 11.0 0.00 0.00 0.00 60 1009.9
20260507182503 53 341 4.0 8.0 0.00 0.00 0.00 59 1009.9
20260507182003 53 355 4.0 12.0 0.00 0.00 0.00 59 1009.9
20260507181524 53 360 4.0 8.0 0.00 0.00 0.00 58 1009.9
20260507181003 53 360 3.0 8.0 0.00 0.00 0.00 57 1010.0
20260507180503 54 348 3.0 7.0 0.00 0.00 0.00 58 1010.0
20260507180024 54 340 4.0 7.0 0.00 0.00 0.00 57 1010.1
20260507175503 54 347 5.0 13.0 0.00 0.00 0.00 56 1010.0
20260507175003 54 342 4.0 15.0 0.00 0.00 0.00 56 1009.9
20260507174503 55 337 3.0 9.0 0.00 0.00 0.00 56 1010.0
20260507174003 55 338 3.0 5.0 0.00 0.00 0.00 55 1010.0
20260507173503 55 337 4.0 7.0 0.00 0.00 0.00 55 1010.0
20260507173003 55 350 6.0 13.0 0.00 0.00 0.00 56 1010.1
20260507172503 55 1 5.0 13.0 0.00 0.00 0.00 57 1010.2
20260507172003 55 5 4.0 8.0 0.00 0.00 0.00 55 1010.2
20260507171524 55 359 4.0 9.0 0.00 0.00 0.00 56 1010.2
20260507171003 55 4 6.0 12.0 0.00 0.00 0.00 56 1010.3
20260507170503 55 5 5.0 19.0 0.00 0.00 0.00 56 1010.4
20260507170003 55 354 4.0 12.0 0.00 0.00 0.00 55 1010.4
20260507165503 55 345 4.0 12.0 0.00 0.00 0.00 57 1010.4
20260507165003 55 349 5.0 12.0 0.00 0.00 0.00 58 1010.6
20260507164503 54 351 6.0 15.0 0.00 0.00 0.00 59 1010.5
20260507164004 54 355 5.0 13.0 0.00 0.00 0.00 57 1010.6
20260507163504 54 346 4.0 13.0 0.00 0.00 0.00 58 1010.7
20260507163004 54 334 4.0 8.0 0.00 0.00 0.00 59 1010.7
20260507162525 54 350 4.0 11.0 0.00 0.00 0.00 59 1010.7
20260507162025 54 360 5.0 11.0 0.00 0.00 0.00 59 1010.8
20260507161504 54 360 5.0 13.0 0.00 0.00 0.00 59 1010.8
20260507161005 53 360 5.0 11.0 0.00 0.00 0.00 58 1010.9
20260507160504 54 360 5.0 15.0 0.00 0.00 0.00 58 1010.9
20260507160004 54 360 5.0 13.0 0.00 0.00 0.00 58 1010.8
20260507155504 54 360 5.0 11.0 0.00 0.00 0.00 58 1010.9
20260507155004 54 360 4.0 15.0 0.00 0.00 0.00 57 1011.0
20260507154504 54 360 4.0 12.0 0.00 0.00 0.00 56 1011.0
20260507154004 54 360 5.0 13.0 0.00 0.00 0.00 58 1011.0
20260507153504 55 360 4.0 17.0 0.00 0.00 0.00 57 1011.0
20260507153004 55 356 4.0 8.0 0.00 0.00 0.00 57 1011.0
20260507152525 56 342 4.0 11.0 0.00 0.00 0.00 58 1011.0
20260507152004 56 311 4.0 11.0 0.00 0.00 0.00 58 1011.0
20260507151504 56 301 2.0 12.0 0.00 0.00 0.00 58 1010.9
20260507151004 56 335 2.0 5.0 0.00 0.00 0.00 38 1010.9
20260507150504 56 347 4.0 12.0 0.00 0.00 0.00 59 1011.0
20260507150004 55 360 3.0 11.0 0.00 0.00 0.00 59 1010.9
20260507145525 55 358 3.0 8.0 0.00 0.00 0.00 60 1010.9
20260507145004 55 358 3.0 8.0 0.00 0.00 0.00 60 1011.0
20260507144504 54 360 3.0 11.0 0.00 0.00 0.00 61 1011.0